Location: Bretagne
(43.8474°N, 0.4650°W)
Time: 15:04:24
(UTC+00:00)

Meteor 2-15 - Pass Details

Date: 15 January 2026
Orbit: 935 x 955 km, 82.5° (Epoch: 17 February)

Event Time Altitude Azimuth Distance (km) Brightness Sun altitude
Rises 18:11:51 0° 351° (N) 3,638 7.4 -14.5°
Reaches altitude 10° 18:14:21 10° 353° (N) 2,686 6.7 -14.9°
Maximum altitude 18:20:31 83° 81° (E) 960 4.4 -16.0°
Drops below altitude 10° 18:26:36 10° 170° (S) 2,654 6.8 -17.0°
Sets 18:29:04 0° 171° (S) 3,591 7.5 -17.5°
